Вернуться в каталог

FOSSASAT2E19

TAT-E

АктивенСвязьSSO
NORAD 62676·PAYLOAD·🇪🇸 Spain

Запущен Jan 14, 2025 с Vandenberg Space Force Base

Loading…

Ближайшие Пролёты (ближайшие 24 часа)

TLE

СвежийSource: Space-Track

Эпоха: Sep 13, 2026, 18:30 UTC

1 62676U 25009BV  26256.77131062  .00001897  00000-0  87281-4 0  9996
2 62676  97.3903 333.4619 0006071  42.9213 317.2496 15.21537592 92164

Отслеживайте FOSSASAT2E19 в реальном времени с AllMySat

Download on the App Store